Flag for Canada Weather past 2 weeks in Guelph, Ontario, Canada

Now
72 °F

Sunny.


Feels Like: 77 °F
Forecast: 48 / 75 °F
Wind: 3 mph from Northeast

Location: Waterloo Well

Current Time: Jul 24, 2014 at 8:00:32 PM

Latest Report: Jul 24, 2014 at 7:00 PM


Visibility: 9 mi

Pressure: 30.01 "Hg

Humidity: 44%

Dew point: 48 °F

Location of GuelphLocation

Historic Weather in Guelph — Graph

°F

Guelph temperature yesterday

Maximum temperature yesterday: 75 °F (at 12:00 AM)
Minimum temperature yesterday: 55 °F (at 11:00 PM)
Average temperature yesterday: 67 °F

Past Weeks' High & Low Weather Summary

 TemperatureHumidityPressure
High82 °F (Jul 21, 4:00 PM)100% (Jul 10, 1:00 AM)30.26 "Hg (Jul 10, 1:00 AM)
Low45 °F (Jul 17, 4:00 AM)34% (Jul 17, 3:00 PM)29.67 "Hg (Jul 15, 9:00 AM)
Average64 °F77%30.03 "Hg
* Reported Jul 9 7:00 PM — Jul 24 7:00 PM, Guelph, Weather by CustomWeather, © 2014

Note: Actual official high and low records may vary slightly from our data, if they occured in-between our weather recording intervals... More about our weather records

Advertising

Guelph weather history for previous 24 hours

 ConditionsComfort  
Time TempWeatherWind HumidityBarometerVisibility
7:00 PM
Jul 24
72 °FSunny.3 mph44%30.01 "Hg9 mi
6:00 PM72 °FPartly sunny.3 mph41%30.02 "Hg9 mi
5:00 PM73 °FPassing clouds.7 mph38%30.04 "Hg9 mi
4:00 PM73 °FPartly sunny.6 mph38%30.05 "Hg9 mi
3:00 PM72 °FScattered clouds.No wind41%30.06 "Hg9 mi
2:00 PM72 °FSunny.10 mph41%30.07 "Hg9 mi
1:00 PM70 °FScattered clouds.10 mph40%30.08 "Hg9 mi
12:00 PM68 °FPartly sunny.9 mph43%30.10 "Hg9 mi
11:00 AM68 °FScattered clouds.13 mph46%30.09 "Hg9 mi
10:00 AM64 °FSunny.9 mph52%30.10 "Hg9 mi
9:00 AM63 °FSunny.9 mph59%30.10 "Hg9 mi
8:00 AM57 °FSunny.7 mph82%30.09 "Hg9 mi
7:00 AM52 °FClear.6 mph88%30.08 "Hg9 mi
6:00 AM50 °FClear.3 mph94%30.07 "Hg9 mi
5:00 AM52 °FPassing clouds.3 mph94%30.06 "Hg9 mi
4:00 AM52 °FPassing clouds.2 mph94%30.05 "Hg9 mi
3:00 AM52 °FPassing clouds.5 mph94%30.04 "Hg9 mi
2:00 AM54 °FPassing clouds.5 mph88%30.04 "Hg9 mi
1:00 AM54 °FClear.7 mph94%30.04 "Hg9 mi
12:00 AM55 °FClear.8 mph88%30.04 "Hg9 mi
11:00 PM
Jul 23
55 °FClear.7 mph82%30.04 "Hg9 mi
10:00 PM57 °FClear.6 mph82%30.04 "Hg9 mi
9:00 PM59 °FSunny.5 mph77%30.03 "Hg9 mi
8:00 PM64 °FSunny.9 mph64%30.02 "Hg9 mi
Weather by CustomWeather, © 2014

See weather overviewHow to use our weather pages